Tracking 31027 objects as of 19-Jul-2025
HD Live streaming from Space Station
objects crossing your sky now

ONEWEB-0334

Track ONEWEB-0334 now!
10-day predictions
ONEWEB-0334 is classified as:


NORAD ID: 49200
Int'l Code: 2021-083Q
Perigee: 1,186.7 km
Apogee: 1,191.1 km
Inclination: 87.9 °
Period: 109.0 minutes
Semi major axis: 7559 km
RCS: Unknown
Launch date: September 14, 2021
Source: United Kingdom (UK)
Launch site: TYURATAM MISSILE AND SPACE COMPLEX (TTMTR)
Your satellite tracking list
TITAN 3C TRANSTAGE DEB
Track 1 satellite(s)




NASA's NSSDC Master Catalog

Two Line Element Set (TLE):
1 49200U 21083Q   25199.43387276  .00000021  00000-0  20562-4 0  9997
2 49200  87.9274 340.9563 0002919  90.9338 269.2130 13.20771684192731
Source of the keplerian elements: AFSPC